DW2913 Weather Reports


Display with metric or nautical units.
time (UTC)temp
F
wind
direction
speed
MPH
gust
MPH
rain 1hr
in
rain 24hr
in
rain mn
in
humidity
%
barometer
mb
20191113091211 37 211 2.0 6.0 0.00 0.06 0.06 73 1004.9
20191113090711 37 211 2.0 6.0 0.00 0.06 0.06 73 1004.9
20191113090212 37 211 2.0 6.0 0.00 0.06 0.06 72 1004.9
20191113085710 37 211 3.0 7.0 0.00 0.06 0.06 72 1004.9
20191113085211 37 211 3.0 7.0 0.00 0.06 0.06 72 1004.9
20191113084711 36 211 3.0 7.0 0.00 0.06 0.06 72 1004.8
20191113084212 36 211 3.0 6.0 0.00 0.06 0.06 71 1004.8
20191113083711 36 211 3.0 6.0 0.00 0.06 0.06 71 1004.8
20191113083212 36 211 3.0 7.0 0.00 0.06 0.06 71 1004.9
20191113082711 36 211 4.0 7.0 0.00 0.06 0.06 70 1004.7
20191113082212 36 211 4.0 7.0 0.00 0.06 0.06 70 1004.7
20191113081709 36 211 4.0 5.0 0.00 0.06 0.06 70 1004.6
20191113081211 36 211 3.0 5.0 0.00 0.06 0.06 69 1004.6
20191113080710 36 211 2.0 5.0 0.00 0.06 0.06 69 1004.6
20191113080212 35 211 2.0 5.0 0.00 0.06 0.06 69 1004.5
20191113075710 35 211 1.0 5.0 0.00 0.06 0.06 69 1004.5
20191113075210 35 211 0.0 6.0 0.00 0.06 0.06 69 1004.4
20191113074711 35 211 1.0 6.0 0.00 0.06 0.06 69 1004.3
20191113074212 35 211 1.0 7.0 0.00 0.06 0.06 69 1004.2
20191113073711 35 211 0.0 7.0 0.00 0.06 0.06 68 1004.3
20191113073210 35 211 2.0 7.0 0.00 0.06 0.06 68 1004.2
20191113072711 35 211 4.0 7.0 0.00 0.06 0.06 68 1004.3
20191113072212 35 211 4.0 8.0 0.00 0.06 0.06 68 1004.3
20191113071710 35 209 4.0 8.0 0.00 0.06 0.06 68 1004.3
20191113071211 35 207 4.0 8.0 0.00 0.06 0.06 68 1004.2
20191113070710 35 205 4.0 8.0 0.00 0.06 0.06 68 1004.2
20191113070212 35 203 4.0 6.0 0.00 0.06 0.06 68 1004.1
20191113065710 35 183 3.0 6.0 0.00 0.06 0.06 68 1004.1
20191113065210 35 182 2.0 6.0 0.00 0.06 0.06 69 1004.1
20191113064711 35 182 1.0 4.0 0.00 0.06 0.06 69 1004.1
20191113064212 35 182 0.0 0.0 0.00 0.06 0.06 69 1004.1
20191113063712 35 182 0.0 0.0 0.00 0.06 0.06 69 1004.1
20191113063211 35 182 0.0 0.0 0.00 0.06 0.06 69 1004.0
20191113062711 35 182 0.0 0.0 0.00 0.06 0.06 69 1004.0
20191113062213 35 182 0.0 0.0 0.00 0.06 0.06 69 1003.8
20191113061710 34 182 0.0 0.0 0.00 0.06 0.06 69 1003.7
20191113061211 34 182 0.0 0.0 0.00 0.06 0.06 69 1003.6
20191113060710 34 182 0.0 0.0 0.00 0.06 0.06 70 1003.7
20191113060212 34 182 0.0 0.0 0.01 0.06 0.06 70 1003.6
20191113055709 34 182 0.0 0.0 0.01 0.06 0.06 70 1003.7
20191113055212 34 182 0.0 0.0 0.01 0.06 0.06 70 1003.6
20191113054714 34 182 0.0 0.0 0.01 0.06 0.06 70 1003.5
20191113054214 34 182 0.0 0.0 0.01 0.06 0.06 70 1003.5
20191113053713 34 182 0.0 0.0 0.01 0.06 0.06 70 1003.6
20191113053213 34 182 0.0 0.0 0.01 0.06 0.06 70 1003.6
20191113052713 34 182 0.0 0.0 0.01 0.06 0.06 70 1003.5
20191113052213 34 182 0.0 0.0 0.01 0.06 0.06 71 1003.5
20191113051713 34 182 0.0 0.0 0.02 0.06 0.06 71 1003.7
20191113051211 34 182 0.0 0.0 0.02 0.06 0.06 71 1003.6
20191113050711 34 182 0.0 0.0 0.01 0.06 0.06 71 1003.7
20191113050212 34 182 0.0 0.0 0.01 0.06 0.06 71 1003.8
20191113045710 34 182 0.0 0.0 0.01 0.06 0.06 71 1003.9
20191113045211 34 182 0.0 0.0 0.01 0.06 0.06 71 1003.9
20191113044712 34 182 0.0 3.0 0.01 0.06 0.06 72 1003.8
20191113044212 34 182 0.0 4.0 0.01 0.06 0.06 72 1003.7
20191113043711 34 182 0.0 4.0 0.01 0.06 0.06 72 1003.8
20191113043211 34 186 0.0 4.0 0.01 0.06 0.06 72 1003.8
20191113042711 34 187 0.0 3.0 0.02 0.06 0.06 72 1003.9
20191113042212 34 186 0.0 5.0 0.02 0.06 0.06 73 1003.9
20191113041709 34 187 1.0 5.0 0.02 0.06 0.06 73 1004.0
20191113041211 34 187 2.0 7.0 0.01 0.05 0.05 73 1003.9
20191113040710 34 187 3.0 7.0 0.01 0.05 0.05 73 1004.0
20191113040212 35 187 3.0 7.0 0.01 0.05 0.05 73 1004.0
20191113035710 35 187 3.0 7.0 0.01 0.05 0.05 73 1003.9
20191113035211 35 187 1.0 5.0 0.01 0.05 0.05 73 1003.9
20191113034708 35 186 0.0 0.0 0.01 0.05 0.05 73 1003.9
20191113034210 35 186 0.0 0.0 0.02 0.05 0.05 73 1003.9
20191113033708 35 186 0.0 0.0 0.02 0.05 0.05 73 1003.8
20191113033209 35 186 0.0 0.0 0.02 0.05 0.05 74 1003.7
20191113032707 35 186 0.0 5.0 0.02 0.04 0.04 74 1003.7
20191113032210 35 186 0.0 6.0 0.02 0.04 0.04 74 1003.7
20191113031707 35 186 1.0 6.0 0.02 0.04 0.04 74 1003.7
20191113031207 35 186 1.0 6.0 0.02 0.04 0.04 75 1003.5
20191113030707 35 186 0.0 0.0 0.02 0.04 0.04 75 1003.6
20191113030209 35 186 0.0 0.0 0.02 0.04 0.04 75 1003.7
20191113025707 35 186 0.0 6.0 0.02 0.04 0.04 76 1003.6
20191113025208 35 186 1.0 6.0 0.03 0.04 0.04 76 1003.6
20191113024707 35 186 1.0 7.0 0.03 0.04 0.03 76 1003.7
20191113024211 35 186 2.0 7.0 0.02 0.03 0.03 76 1003.6
20191113023707 35 186 3.0 7.0 0.02 0.03 0.03 77 1003.5
20191113023209 35 186 4.0 6.0 0.02 0.03 0.03 77 1003.5
20191113022706 35 186 3.0 6.0 0.02 0.02 0.02 77 1003.4
20191113022210 35 186 3.0 7.0 0.02 0.02 0.02 77 1003.5
20191113021708 35 186 3.0 7.0 0.02 0.02 0.02 77 1003.4
20191113021209 35 186 4.0 7.0 0.02 0.03 0.02 77 1003.5
20191113020708 35 184 4.0 7.0 0.02 0.02 0.02 77 1003.3
20191113020210 35 185 2.0 7.0 0.02 0.02 0.02 77 1003.4
20191113015707 36 182 0.0 2.0 0.02 0.02 0.02 77 1003.4
20191113015210 36 174 0.0 5.0 0.01 0.02 0.01 77 1003.5
20191113014707 36 166 0.0 5.0 0.01 0.02 0.01 77 1003.7
20191113014210 36 169 0.0 7.0 0.01 0.02 0.01 77 1003.6
20191113013706 36 171 0.0 7.0 0.01 0.02 0.01 78 1003.5
20191113013209 36 157 1.0 8.0 0.00 0.01 0.00 78 1003.5
20191113012707 36 136 3.0 12.0 0.00 0.01 0.00 78 1003.5
20191113012211 36 139 5.0 12.0 0.00 0.01 0.00 78 1003.6
20191113011707 36 135 7.0 13.0 0.00 0.01 0.00 78 1003.5
20191113011208 36 157 8.0 13.0 0.00 0.02 0.00 78 1003.6
20191113010709 36 146 8.0 12.0 0.00 0.02 0.00 78 1003.5
20191113010210 36 145 8.0 12.0 0.00 0.02 0.00 78 1003.6
20191113005707 36 130 7.0 12.0 0.00 0.02 0.00 79 1003.5
20191113005209 36 146 7.0 13.0 0.00 0.02 0.00 79 1003.3
20191113004707 36 146 8.0 13.0 0.00 0.02 0.00 79 1003.3
20191113004211 36 136 8.0 13.0 0.00 0.02 0.00 79 1003.3
20191113003707 36 132 8.0 13.0 0.00 0.02 0.00 79 1003.4
20191113003209 36 141 7.0 11.0 0.00 0.02 0.00 79 1003.4
20191113002708 36 137 6.0 13.0 0.00 0.02 0.00 80 1003.3
20191113002210 36 115 7.0 13.0 0.00 0.02 0.00 80 1003.4
20191113001707 36 147 7.0 14.0 0.00 0.02 0.00 80 1003.6
20191113001208 36 131 8.0 14.0 0.00 0.02 0.00 80 1003.9
20191113000708 36 144 8.0 14.0 0.00 0.02 0.00 81 1004.0
20191113000209 36 147 9.0 14.0 0.00 0.02 0.00 81 1004.1
20191112235707 36 146 9.0 15.0 0.00 0.02 0.00 81 1004.1
20191112235208 37 126 9.0 15.0 0.00 0.02 0.00 81 1004.2
20191112234707 37 157 9.0 16.0 0.00 0.02 0.00 81 1004.3
20191112234211 37 144 9.0 18.0 0.00 0.02 0.00 81 1004.3
20191112233710 37 119 10.0 19.0 0.00 0.02 0.00 81 1004.2
20191112233211 37 126 10.0 20.0 0.00 0.02 0.00 81 1004.1
20191112232712 37 126 10.0 23.0 0.00 0.02 0.00 82 1004.2
20191112232212 37 127 11.0 23.0 0.00 0.02 0.00 82 1004.2
20191112231710 37 136 12.0 23.0 0.00 0.02 0.00 82 1004.3
20191112231209 37 142 13.0 19.0 0.00 0.02 0.00 83 1004.3
20191112230708 37 134 11.0 19.0 0.00 0.02 0.00 83 1004.3
20191112230210 37 131 10.0 19.0 0.00 0.02 0.03 83 1004.3
20191112225707 38 146 9.0 15.0 0.00 0.03 0.03 83 1004.2
20191112225208 38 152 8.0 17.0 0.00 0.03 0.03 83 1004.3
20191112224707 38 157 8.0 17.0 0.00 0.03 0.03 83 1004.4
20191112224210 38 134 7.0 17.0 0.00 0.04 0.03 83 1004.4
20191112223707 38 138 6.0 12.0 0.00 0.05 0.03 82 1004.4
20191112223210 38 138 6.0 12.0 0.00 0.05 0.03 82 1004.6
20191112222708 38 141 5.0 10.0 0.00 0.06 0.03 81 1004.5
20191112222210 38 145 2.0 6.0 0.00 0.06 0.03 81 1004.6
20191112221706 38 138 0.0 0.0 0.00 0.07 0.03 82 1004.4
20191112221207 38 138 0.0 0.0 0.00 0.07 0.03 82 1004.4
20191112220708 38 138 0.0 0.0 0.00 0.08 0.03 82 1004.5
20191112220210 38 138 0.0 0.0 0.00 0.08 0.03 81 1004.5
20191112215707 38 138 0.0 0.0 0.00 0.08 0.03 81 1004.6
20191112215208 38 138 0.0 0.0 0.00 0.09 0.03 81 1004.6
20191112214707 38 138 0.0 0.0 0.00 0.09 0.03 81 1004.6
20191112214210 38 138 0.0 0.0 0.00 0.09 0.03 81 1004.6
20191112213707 38 138 0.0 0.0 0.00 0.09 0.03 81 1004.7
20191112213210 38 138 0.0 0.0 0.00 0.09 0.03 81 1004.7
20191112212707 38 138 0.0 0.0 0.00 0.10 0.03 81 1004.6
20191112212210 38 138 0.0 0.0 0.00 0.10 0.03 81 1004.6
20191112211706 38 138 0.0 0.0 0.00 0.10 0.03 81 1004.5
20191112211209 38 138 0.0 0.0 0.00 0.10 0.03 82 1004.4
20191112210707 38 138 0.0 0.0 0.00 0.10 0.03 82 1004.5
20191112210210 38 137 0.0 0.0 0.00 0.11 0.03 82 1004.5
20191112205708 38 137 0.0 0.0 0.00 0.11 0.03 82 1004.5
20191112205207 38 137 0.0 0.0 0.00 0.11 0.03 82 1004.5
20191112204707 38 137 0.0 0.0 0.00 0.11 0.03 81 1004.6
20191112204211 38 137 0.0 0.0 0.00 0.11 0.03 82 1004.7
20191112203708 38 137 0.0 0.0 0.00 0.11 0.03 82 1005.0
20191112203210 38 137 0.0 0.0 0.00 0.11 0.03 82 1004.9
20191112202707 38 137 0.0 0.0 0.00 0.11 0.03 82 1005.1
20191112202210 38 137 0.0 0.0 0.00 0.11 0.03 82 1005.0
20191112201707 38 137 0.0 0.0 0.00 0.11 0.03 82 1005.2
20191112201208 38 136 0.0 0.0 0.00 0.11 0.03 82 1005.4
20191112200707 38 136 0.0 0.0 0.00 0.11 0.03 82 1005.7
20191112200210 38 136 0.0 0.0 0.00 0.11 0.03 82 1005.8
20191112195708 38 136 0.0 0.0 0.00 0.11 0.03 82 1005.9
20191112195209 38 136 0.0 0.0 0.00 0.11 0.03 83 1006.0
20191112194707 38 136 0.0 0.0 0.00 0.11 0.03 83 1005.9
20191112194211 38 136 0.0 0.0 0.00 0.11 0.03 83 1006.0
20191112193706 38 136 0.0 0.0 0.00 0.12 0.03 83 1006.0
20191112193208 38 136 0.0 0.0 0.00 0.12 0.03 83 1006.1
20191112192708 38 136 0.0 0.0 0.00 0.12 0.03 83 1005.9
20191112192210 38 136 0.0 0.0 0.00 0.12 0.03 83 1005.9
20191112191707 38 136 0.0 0.0 0.00 0.13 0.03 83 1005.9
20191112191210 38 136 0.0 0.0 0.00 0.13 0.03 83 1005.9
20191112190711 38 136 0.0 0.0 0.00 0.13 0.03 83 1006.0
20191112190212 38 136 0.0 0.0 0.00 0.13 0.03 83 1006.1
20191112185710 38 136 0.0 0.0 0.00 0.13 0.03 83 1006.2
20191112185211 38 136 0.0 0.0 0.00 0.13 0.03 83 1006.1
20191112184712 38 136 0.0 0.0 0.00 0.13 0.03 83 1006.2
20191112184212 38 136 0.0 0.0 0.00 0.14 0.03 82 1006.2
20191112183712 38 136 0.0 0.0 0.00 0.14 0.03 82 1006.2
20191112183211 38 142 0.0 5.0 0.00 0.14 0.03 82 1006.2
20191112182711 38 148 0.0 5.0 0.00 0.14 0.03 81 1006.2
20191112182212 38 148 1.0 4.0 0.00 0.14 0.03 81 1006.2
20191112181710 38 148 1.0 4.0 0.00 0.14 0.03 81 1006.2
20191112181211 38 148 0.0 0.0 0.00 0.14 0.03 81 1006.2
20191112180710 38 213 0.0 0.0 0.00 0.14 0.03 81 1006.2
20191112180212 38 213 0.0 0.0 0.00 0.14 0.03 81 1006.1
20191112175711 38 212 0.0 0.0 0.00 0.14 0.03 81 1006.1
20191112175211 38 212 0.0 0.0 0.00 0.14 0.03 81 1005.9
20191112174713 38 212 0.0 0.0 0.00 0.14 0.03 81 1006.1
20191112174214 38 213 0.0 0.0 0.00 0.14 0.03 82 1006.1
20191112173713 38 213 0.0 0.0 0.00 0.14 0.03 82 1006.0
20191112173213 38 212 0.0 0.0 0.00 0.14 0.03 82 1005.9
20191112172712 38 213 0.0 0.0 0.00 0.14 0.03 82 1005.9
20191112172213 38 212 0.0 0.0 0.00 0.14 0.03 83 1006.2
20191112171713 38 212 0.0 0.0 0.00 0.14 0.03 83 1006.5
20191112171211 38 212 0.0 0.0 0.00 0.14 0.03 83 1006.5
20191112170709 38 212 0.0 3.0 0.00 0.14 0.03 83 1006.2
20191112170212 38 213 0.0 3.0 0.00 0.14 0.03 83 1006.2
20191112165710 38 213 0.0 3.0 0.00 0.14 0.03 84 1006.3
20191112165211 39 212 0.0 0.0 0.00 0.14 0.03 84 1006.3
20191112164711 39 213 0.0 0.0 0.00 0.14 0.03 84 1006.2
20191112164212 39 213 0.0 0.0 0.00 0.14 0.03 84 1006.2
20191112163711 39 213 0.0 0.0 0.00 0.14 0.03 84 1006.2
20191112163210 39 213 0.0 4.0 0.00 0.14 0.03 83 1006.3
20191112162711 39 213 0.0 4.0 0.00 0.14 0.03 83 1006.4
20191112162212 40 213 0.0 4.0 0.00 0.14 0.03 82 1006.3
20191112161710 40 213 1.0 3.0 0.00 0.14 0.03 82 1006.5
20191112161210 40 213 1.0 3.0 0.00 0.14 0.03 82 1006.5
20191112160710 40 213 1.0 3.0 0.00 0.14 0.03 81 1006.5
20191112160213 40 213 0.0 1.0 0.00 0.14 0.03 81 1006.3
20191112155709 40 213 0.0 0.0 0.00 0.14 0.03 81 1006.3
20191112155211 40 213 0.0 0.0 0.00 0.14 0.03 81 1006.5
20191112154711 40 213 0.0 0.0 0.00 0.14 0.03 81 1006.4
20191112154212 40 213 0.0 0.0 0.00 0.15 0.03 81 1006.4
20191112153712 41 213 0.0 3.0 0.00 0.15 0.03 81 1006.5
20191112153211 41 213 0.0 3.0 0.00 0.15 0.03 81 1006.6
20191112152711 41 213 0.0 2.0 0.00 0.15 0.03 81 1006.7
20191112152212 41 213 0.0 6.0 0.00 0.15 0.03 81 1006.8
20191112151710 41 213 0.0 6.0 0.00 0.15 0.03 80 1006.7
20191112151211 41 213 1.0 0.0 0.00 0.15 0.03 80 1006.8
20191112150711 41 213 1.0 0.0 0.00 0.15 0.03 79 1006.9
20191112150212 41 212 0.0 7.0 0.00 0.15 0.03 79 1007.1
20191112145710 41 213 0.0 7.0 0.00 0.15 0.03 79 1007.1
20191112145211 41 212 1.0 7.0 0.00 0.15 0.03 79 1007.1
20191112144711 41 212 2.0 5.0 0.00 0.15 0.03 80 1007.1
20191112144212 41 212 1.0 4.0 0.00 0.15 0.03 80 1007.1
20191112143711 41 213 0.0 5.0 0.00 0.15 0.03 80 1007.2
20191112143211 41 213 0.0 5.0 0.00 0.15 0.03 80 1007.1
20191112142712 41 213 1.0 6.0 0.00 0.15 0.03 80 1007.1
20191112142212 41 213 2.0 7.0 0.00 0.15 0.03 80 1007.1
20191112141709 41 213 2.0 7.0 0.00 0.15 0.03 79 1007.0
20191112141211 41 213 3.0 6.0 0.00 0.15 0.03 79 1007.1
20191112140710 41 213 3.0 6.0 0.00 0.15 0.03 79 1007.1
20191112140212 41 212 2.0 6.0 0.00 0.15 0.03 79 1007.0
20191112135710 41 212 2.0 6.0 0.00 0.15 0.03 80 1006.9
20191112135211 41 212 2.0 7.0 0.00 0.15 0.03 80 1006.9
20191112134712 41 212 2.0 7.0 0.00 0.15 0.03 80 1006.9
20191112134212 41 212 2.0 7.0 0.00 0.15 0.03 80 1007.0
20191112133711 41 211 1.0 7.0 0.00 0.15 0.03 80 1007.1
20191112133211 41 203 2.0 7.0 0.00 0.15 0.03 80 1007.1
20191112132711 41 203 4.0 7.0 0.00 0.15 0.03 80 1007.2
20191112132212 41 205 4.0 8.0 0.00 0.15 0.03 80 1007.2
20191112131709 41 204 4.0 8.0 0.00 0.15 0.03 81 1007.4
20191112131210 41 204 4.0 8.0 0.00 0.15 0.03 80 1007.5
20191112130710 41 211 3.0 8.0 0.00 0.15 0.03 80 1007.5
20191112130212 41 197 3.0 8.0 0.00 0.15 0.03 81 1007.6
20191112125710 41 188 2.0 8.0 0.00 0.15 0.03 82 1007.8
20191112125211 41 182 0.0 7.0 0.00 0.15 0.03 82 1007.8
20191112124712 41 180 2.0 7.0 0.00 0.15 0.03 82 1007.9
20191112124212 41 182 3.0 7.0 0.00 0.15 0.03 82 1008.1
20191112123712 41 195 3.0 7.0 0.00 0.15 0.03 86 1008.1
20191112123212 41 199 2.0 7.0 0.00 0.15 0.03 82 1008.2
20191112122710 41 199 2.0 8.0 0.00 0.15 0.03 82 1008.3
20191112122212 41 199 3.0 8.0 0.00 0.15 0.03 82 1008.2
20191112121710 41 199 4.0 8.0 0.00 0.15 0.03 82 1008.3
20191112121211 41 193 5.0 9.0 0.00 0.15 0.03 81 1008.3
20191112120712 41 197 4.0 9.0 0.00 0.15 0.03 81 1008.4
20191112120213 41 194 4.0 8.0 0.00 0.15 0.03 81 1008.4
20191112115710 41 199 3.0 8.0 0.00 0.15 0.03 81 1008.2
20191112115211 41 184 3.0 9.0 0.00 0.15 0.03 81 1008.4
20191112114712 41 189 4.0 9.0 0.00 0.15 0.03 80 1008.4
20191112114214 41 199 5.0 8.0 0.00 0.15 0.03 79 1008.5
20191112113713 41 209 5.0 8.0 0.00 0.15 0.03 79 1008.4
20191112113212 41 199 4.0 8.0 0.00 0.15 0.03 79 1008.5
20191112112712 41 207 4.0 8.0 0.00 0.15 0.03 78 1008.4
20191112112213 41 192 4.0 7.0 0.00 0.15 0.03 78 1008.4
20191112111713 41 209 3.0 7.0 0.00 0.15 0.03 78 1008.3
20191112111211 41 210 2.0 7.0 0.00 0.15 0.03 78 1008.5
20191112110710 41 219 3.0 7.0 0.00 0.15 0.03 79 1008.3
20191112110212 41 217 4.0 9.0 0.00 0.15 0.03 78 1008.2
20191112105710 41 224 4.0 9.0 0.00 0.15 0.03 78 1008.4
20191112105210 41 221 5.0 9.0 0.00 0.15 0.03 79 1008.6
20191112104712 40 232 3.0 6.0 0.00 0.15 0.03 79 1008.8
20191112104212 41 224 3.0 7.0 0.00 0.15 0.03 80 1009.0
20191112103711 40 223 1.0 7.0 0.00 0.15 0.03 79 1009.3
20191112103211 40 221 2.0 8.0 0.00 0.15 0.03 80 1009.4
20191112102711 40 221 3.0 8.0 0.00 0.15 0.03 79 1009.6
20191112102212 40 217 3.0 8.0 0.00 0.15 0.03 79 1009.6
20191112101710 40 225 3.0 8.0 0.00 0.15 0.03 80 1009.8
20191112101210 40 224 3.0 9.0 0.00 0.15 0.03 81 1009.7
20191112100711 40 219 4.0 11.0 0.00 0.15 0.03 80 1009.9
20191112100212 40 228 6.0 11.0 0.00 0.15 0.03 80 1010.1
20191112095710 40 211 6.0 11.0 0.00 0.15 0.03 80 1010.2
20191112095210 40 233 6.0 11.0 0.00 0.15 0.03 81 1010.3
20191112094711 40 222 5.0 9.0 0.00 0.15 0.03 81 1010.3
20191112094212 40 225 4.0 9.0 0.00 0.15 0.03 82 1010.3
20191112093710 40 241 5.0 12.0 0.00 0.15 0.03 82 1010.3
20191112093211 40 219 5.0 12.0 0.00 0.15 0.03 82 1010.4
20191112092711 40 223 6.0 12.0 0.00 0.15 0.03 82 1010.4
20191112092212 40 225 5.0 12.0 0.00 0.15 0.03 82 1010.4